User: anonymous   Login
Location: Unspecified
(0.0000°N, 0.0000°E)
Time: 11:47:14
(UTC+02:00)
Language:

Delta 2 Rocket - Orbit

View from above orbital plane
View from above orbital plane
View from above satellite
View from above satellite

Ground track
Ground track

The orbit data is extracted from the following two-line orbital elements,

1 20453U 90008B   15110.20560410  .00007292  00000-0  44457-3 0  9994
2 20453 035.6245 172.1226 0306869 105.4815 258.0000 14.78186875331151
Epoch (UTC): 20 April 2015 04:56:04
Eccentricity: 0.0306869
inclination: 35.6245°
perigee height: 420 km
apogee height: 850 km
right ascension of ascending node: 172.1226°
argument of perigee: 105.4815°
revolutions per day: 14.78186875
mean anomaly at epoch: 258.0000°
orbit number at epoch: 33115

The dashed part of the orbit path shows where the satellite is in the earth's shadow,  

DLR